Regional Weather Roundup
Issued by NWS

Home | Current Version | Previous Version | Graphics & Text | Print | Product List | Glossary On
Versions: 1 2 3 4 5 6 7 8 9 10 11 12 13 14 15 16 17 18 19 20 21 22 23 24 25 26 27 28 29 30 31 32 33 34 35 36 37 38 39 40 41 42 43 44 45 46 47 48 49 50
608
ASUS43 KIND 211409
RWRIN

WEATHER ROUNDUP FOR INDIANA
NATIONAL WEATHER SERVICE INDIANAPOLIS IN
900 AM EST TUE NOV 21 2017

NOTE: "FAIR" INDICATES FEW OR NO CLOUDS BELOW 12,000 FEET WITH NO
SIGNIFICANT WEATHER AND/OR OBSTRUCTIONS TO VISIBILITY.

* - STATION DOES NOT REPORT WEATHER SUCH AS PRECIPITATION OR FOG.

+ - STATION NOT QUALITY CONTROLLED BY THE NATIONAL WEATHER SERVICE.
    USE DATA WITH CAUTION...ESPECIALLY DEWPOINT AND RELATIVE
    HUMIDITY OBSERVATIONS.

INZ001>003-010>013-019-020-211500-
NORTHWEST INDIANA

CITY           SKY/WX    TMP DP  RH WIND       PRES   REMARKS
GARY /AIRPORT/ PTSUNNY   43  30  61 SW16G28   29.74R
KNOX *+        MOSUNNY   41  32  70 SW16G23   29.76R
LA PORTE +     MOSUNNY   40  31  72 SW16G23   29.76R WCI  31
MICHIGAN CITY+ MOSUNNY   43  32  65 SW14      29.74R
MONTICELLO +   SUNNY     39  29  66 SW17      29.79R WCI  30
RENSSELAER +   MOSUNNY   41  28  60 SW18G24   29.79R
VALPARAISO     CLOUDY    42  31  64 SW15G25   29.76R

$$

LMZ046-743>745-211500-
SOUTHERN LAKE MICHIGAN

STATION/POSITION TIME  TEMP    WIND        PRES    WAVE
                       AIR SEA DIR/SP/G            HT
                 (UTC) (F)     (DEG/KT/KT) (MB)    (FT)
BURNS HARBOR     1340   43     210/ 18/ 24 1007.5R
MICHIGAN CITY    1340   42     190/ 19/ 23   N/A

$$

INZ004-005-014>016-021>024-211500-
NORTH CENTRAL INDIANA

CITY           SKY/WX    TMP DP  RH WIND       PRES   REMARKS
ELKHART        SUNNY     41  28  60 SW13G18   29.74R
GOSHEN         SUNNY     40  28  62 SW15      29.75R WCI  32
LOGANSPORT +   SUNNY     37  30  75 SW15      29.81S WCI  28
PERU/GRISSOM   CLOUDY    40  30  67 SW15      29.79S WCI  31
ROCHESTER +    SUNNY     41  32  70 SW12G18   29.79S
SOUTH BEND     SUNNY     40  31  70 SW20G26   29.74R WCI  30
WARSAW +       SUNNY     41  30  65 SW10G16   29.76S

$$

INZ006>009-017-018-025>027-211500-
NORTHEAST INDIANA

CITY           SKY/WX    TMP DP  RH WIND       PRES   REMARKS
AUBURN +       MOSUNNY   41  28  60 SW8       29.78R
FORT WAYNE     PTSUNNY   41  30  65 SW17      29.80R
HUNTINGTON +   CLOUDY    41  28  59 SW10G17   29.80R
KENDALLVILLE + SUNNY     41  30  64 SW15G23   29.75F

$$

INZ028-029-035-036-043>045-051>053-211500-
WEST CENTRAL INDIANA

CITY           SKY/WX    TMP DP  RH WIND       PRES   REMARKS
CRAWFORDSVL +  CLOUDY    37  30  74 S14       29.85R WCI  29
GREENCASTLE +  CLOUDY    41  28  60 SW7       29.88S
LAFAYETTE      SUNNY     39  29  67 SW7       29.83R WCI  34
TERRE HAUTE    MOSUNNY   41  28  60 S10       29.89R

$$

INZ030>032-037>040-046>048-054>057-064-065-211500-
CENTRAL INDIANA

CITY           SKY/WX    TMP DP  RH WIND       PRES   REMARKS
ANDERSON       SUNNY    N/A N/A N/A S12G17    29.88
CP ATTERBURY + MOSUNNY   45  28  53 SW14G22   29.91S
COLUMBUS       MOSUNNY   41  25  52 MISG      29.92S
FISHERS *+     CLOUDY    41  32  70 SW14G20   29.87R
FRANKFORT +    CLOUDY    41  32  70 SW14      29.84S
GREENWOOD *+   CLOUDY    46  29  52 SW12G20   29.89S
INDIANAPOLIS   CLOUDY    43  28  55 SW14      29.88S
-EAGLE CREEK   CLOUDY    43  26  51 SW9       29.87R
KOKOMO +       CLOUDY    41  29  62 SW16      29.82R
MARION +       CLOUDY    38  29  69 S15       29.83S WCI  30
MT COMFORT *+  CLOUDY    39  32  75 S9        29.88R WCI  33
SHELBYVILLE    CLOUDY    41  27  57 S13       29.90R
ZIONSVILLE +   CLOUDY    40  28  62 SW15G22   29.86S WCI  32

$$

INZ033-034-041-042-049-050-058-059-211500-
EAST CENTRAL INDIANA

CITY           SKY/WX    TMP DP  RH WIND       PRES   REMARKS
MUNCIE         CLOUDY    42  27  55 SW12G22   29.85R
RICHMOND +     CLOUDY    37  28  70 SW16      29.91S WCI  28

$$

INZ060-061-067>069-081>083-085>088-211500-
SOUTHWEST INDIANA

CITY           SKY/WX    TMP DP  RH WIND       PRES   REMARKS
EVANSVILLE     SUNNY     43  30  60 S13       29.97S
HUNTINGBURG +  SUNNY     42  30  62 S13       29.97F
WASHINGTON +   SUNNY     42  27  55 S18G24    29.93R

$$

INZ062-063-066-070>080-084-089>092-211500-
SOUTH CENTRAL AND SOUTHEAST INDIANA

CITY           SKY/WX    TMP DP  RH WIND       PRES   REMARKS
BEDFORD +      SUNNY     43  27  52 S14G20    29.93S
BLOOMINGTON    CLOUDY    43  27  53 SW13      29.91R
MADISON *+     SUNNY     41  28  60 S13       30.00R
NORTH VERNON + CLOUDY    39  27  60 S13G18    29.95S WCI  32
SEYMOUR +      CLOUDY    45  28  53 S15       29.95

$$





USA.gov is the U.S. government's official web portal to all federal, state and local government web resources and services.